Weather History for MROC - October, 2014

Change the Weather History Date:

Monday, October 20, 2014

  Actual Average Record
Temperature  
Mean Temperature 74 °F -  
Max Temperature 82 °F 78 °F 86 °F (1997)
Min Temperature 66 °F 64 °F 60 °F (1996)
Cooling Degree Days 9    
Growing Degree Days 24 (Base 50)    
Moisture  
Dew Point 67 °F    
Average Humidity 86    
Maximum Humidity 100    
Minimum Humidity 59    
Precipitation  
Precipitation 1.69 in 0.26 in - ()
Sea Level Pressure  
Sea Level Pressure 29.95 in    
Wind  
Wind Speed 4 mph ()    
Max Wind Speed 9 mph    
Max Gust Speed -    
Visibility 5.1 miles    
Events Fog , Rain , Thunderstorm    
Averages and records for this station are not official NWS values.
T = Trace of Precipitation, MM = Missing Value Source: Averaged Metar Reports

Daily Weather History Graph

Daily Weather History Graph

Search for Another Location

Airport or City:

Trip Planner

Search our weather history database for the weather conditions in past years. The results will help you decide how hot, cold, wet, or windy it might be!

Date:

Astronomy

Oct. 20, 2014 Rise Set
Actual Time 5:25 AM CST 5:17 PM CST
Civil Twilight 5:04 AM CST 5:38 PM CST
Nautical Twilight 4:39 AM CST 6:03 PM CST
Astronomical Twilight 4:14 AM CST 6:28 PM CST
Moon 2:47 AM CST (10/20) 3:10 PM CST (10/20)
Length of Visible Light 12h 34m
Length of Day
11h 51m
Waning Crescent, 10% of the Moon is Illuminated
Oct 20
Waning Crescent
Oct 23
New
Oct 30
First Quarter
Nov 6
Full
Nov 14
Last Quarter

Hourly Weather History & Observations

Time (CST) Temp. Heat Index Dew Point Humidity Pressure Visibility Wind Dir Wind Speed Gust Speed Precip Events Conditions
12:00 AM 68 °F - 66 °F 92% 29.89 in 1 mi SW 5.8 mph - - Fog Partial Fog
12:00 AM 68.0 °F - 66.2 °F 94% 30.02 in 1.2 mi SW 5.8 mph - N/A   Mostly Cloudy
1:00 AM 68.0 °F - 66.2 °F 94% 30.00 in 1.2 mi West 4.6 mph - N/A   Mostly Cloudy
2:00 AM 68.0 °F - 66.2 °F 94% 29.99 in 1.2 mi WSW 3.5 mph - N/A   Mostly Cloudy
3:00 AM 67 °F - - %  in 1 mi West 3.5 mph - -   Partly Cloudy
3:00 AM 68.0 °F - 66.2 °F 94% 29.99 in 1.2 mi West 3.5 mph - N/A   Mostly Cloudy
4:00 AM 68.0 °F - 66.2 °F 94% 29.99 in - WSW 2.3 mph - N/A Fog Fog
5:00 AM 68.0 °F - 66.2 °F 94% 30.00 in 5.0 mi East 3.5 mph - N/A Fog Fog
6:00 AM 69 °F - 66 °F 89% 29.91 in 9 mi NNW 3.5 mph - -   Overcast
6:00 AM 68.0 °F - 66.2 °F 94% 30.03 in 6.2 mi NNW 3.5 mph - N/A Fog Patches of Fog
7:00 AM 69.8 °F - 66.2 °F 88% 30.04 in 6.2 mi Calm Calm - N/A Fog Patches of Fog
8:00 AM 75.2 °F - 66.2 °F 73% 30.05 in 6.2 mi Calm Calm - N/A   Mostly Cloudy
9:00 AM 75 °F - 66 °F 65% 29.91 in 9 mi West 3.5 mph - -   Partly Cloudy
9:00 AM 75.2 °F - 66.2 °F 73% 30.05 in 6.2 mi West 3.5 mph - N/A   Mostly Cloudy
10:00 AM 78.8 °F - 66.2 °F 65% 30.03 in 6.2 mi West 3.5 mph - N/A   Mostly Cloudy
11:00 AM 78.8 °F - 66.2 °F 65% 30.00 in 6.2 mi WSW 5.8 mph - N/A   Mostly Cloudy
12:00 PM 80 °F - 68 °F 59% 29.82 in 9 mi WSW 9.2 mph - -   Partly Cloudy
12:00 PM 80.6 °F 83.2 °F 68.0 °F 65% - 6.2 mi WSW 9.2 mph - N/A   Mostly Cloudy
1:00 PM 82.4 °F 85.4 °F 68.0 °F 62% - 6.2 mi WSW 6.9 mph - N/A Thunderstorm Scattered Clouds
1:30 PM 77.0 °F - 66.2 °F 69% 29.93 in 6.2 mi ESE 6.9 mph - N/A Rain , Thunderstorm Rain Showers
1:40 PM 73.4 °F - 66.2 °F 78% 29.92 in 0.3 mi ESE 6.9 mph - N/A Rain Heavy Rain Showers
2:00 PM 68.0 °F - 66.2 °F 94% 29.92 in 0.3 mi SE 8.1 mph - N/A Rain , Thunderstorm Thunderstorms and Rain
2:15 PM 68.0 °F - 68.0 °F 100% 29.90 in 1.2 mi NE 4.6 mph - N/A Rain , Thunderstorm Light Thunderstorms and Rain
2:40 PM 68.0 °F - 66.2 °F 94% 29.88 in 5.0 mi NW 3.5 mph - N/A Rain Light Rain
3:00 PM 68 °F - 67 °F 94% 29.80 in 5 mi North 5.8 mph - -   Overcast
3:00 PM 68.0 °F - 66.2 °F 94% 29.88 in 5.0 mi North 5.8 mph - N/A Rain Light Rain
4:00 PM 68.0 °F - 68.0 °F 100% 29.90 in 5.0 mi WNW 5.8 mph - N/A Rain Light Rain
5:00 PM 68.0 °F - 68.0 °F 100% 29.91 in 5.0 mi WNW 3.5 mph - N/A Rain Light Rain
6:00 PM 69 °F - 67 °F 91% 29.83 in 9 mi West 5.8 mph - -   Overcast
6:00 PM 68.0 °F - 66.2 °F 94% 29.92 in 6.2 mi West 5.8 mph - N/A Fog Patches of Fog
7:00 PM 68.0 °F - 66.2 °F 94% 29.96 in 6.2 mi WNW 3.5 mph - N/A   Mostly Cloudy
8:00 PM 68.0 °F - 66.2 °F 94% 29.98 in 6.2 mi West 4.6 mph - N/A   Mostly Cloudy
9:00 PM 68 °F - 66 °F 91% 29.86 in 12 mi NW 2.3 mph - -   Overcast
9:00 PM 68.0 °F - 66.2 °F 94% 30.00 in 6.2 mi NW 2.3 mph - N/A   Mostly Cloudy
10:00 PM 68.0 °F - 66.2 °F 94% 30.00 in 6.2 mi Calm Calm - N/A   Mostly Cloudy
11:00 PM 68.0 °F - 66.2 °F 94% 29.99 in 6.2 mi NW 4.6 mph - N/A   Scattered Clouds